Location: ???????
(55.3754°N, 39.3545°E)
Time: 06:24:50
(UTC+00:00)

ATLAS 3B R/B - Pass Details

Date: 14 April 2026
Orbit: 937 x 1257 km, 63.8° (Epoch: 10 May)

Event Time Altitude Azimuth Distance (km) Brightness Sun altitude
Rises 17:57:46 0° 255° (WSW) 4,147 6.4 -12.3°
Reaches altitude 10° 18:00:36 10° 260° (W) 3,207 5.8 -12.6°
Maximum altitude 18:08:17 56° 338° (NNW) 1,471 3.8 -13.5°
Drops below altitude 10° 18:16:01 10° 56° (NE) 3,225 5.1 -14.3°
Sets 18:18:52 0° 61° (ENE) 4,171 5.6 -14.6°
